Total_Precipitation_Accumulation
1.62 1.77 1.55 1.13 0.96 0.84 0.73 0.63 0.55 0.40 0.33 0.45 0.42 0.29 0.22 0.25 0.31 0.35 0.36 0.43 0.47 0.48 0.49 0.54 0.63 0.77 0.90 1.01 1.11 1.21 1.37 1.41 1.58 1.69 1.69 1.65 1.75 1.78 1.82 1.85 1.77 1.65 1.53 1.39
1.69 1.37 0.77 0.58 0.63 0.75 0.82 0.78 0.59 0.44 0.37 0.47 0.42 0.29 0.22 0.23 0.29 0.33 0.37 0.43 0.47 0.50 0.58 0.60 0.72 0.86 0.91 0.93 1.05 1.18 1.31 1.35 1.40 1.42 1.45 1.50 1.53 1.61 1.68 1.76 1.83 1.82 1.71 1.54
1.20 0.80 0.50 0.62 0.75 0.90 0.88 0.77 0.61 0.55 0.53 0.59 0.57 0.50 0.28 0.25 0.28 0.30 0.36 0.41 0.43 0.48 0.52 0.53 0.65 0.87 0.95 0.93 1.00 1.12 1.25 1.30 1.41 1.50 1.58 1.63 1.75 1.79 1.72 1.65 1.71 1.77 1.73 1.62
0.82 0.53 0.58 0.76 0.78 0.84 0.90 0.58 0.56 0.61 0.86 1.04 0.85 0.94 0.42 0.29 0.32 0.30 0.35 0.44 0.42 0.46 0.51 0.50 0.58 0.79 0.95 0.92 1.04 1.17 1.29 1.40 1.47 1.60 1.60 1.50 1.47 1.54 1.47 1.46 1.45 1.58 1.71 1.69
0.89 0.60 0.70 0.80 0.64 0.63 0.67 0.55 0.66 0.77 0.99 1.16 0.89 0.97 0.52 0.31 0.39 0.38 0.39 0.47 0.44 0.46 0.51 0.50 0.53 0.70 0.89 0.97 1.05 1.23 1.31 1.43 1.56 1.60 1.61 1.48 1.36 1.32 1.40 1.52 1.58 1.55 1.58 1.68
0.70 0.57 0.68 0.61 0.50 0.56 0.65 0.86 1.12 1.24 1.65 1.82 0.85 0.78 0.62 0.47 0.49 0.45 0.44 0.50 0.49 0.48 0.52 0.56 0.58 0.68 0.81 0.93 1.05 1.16 1.34 1.39 1.59 1.63 1.60 1.45 1.31 1.24 1.30 1.39 1.58 1.66 1.66 1.68
1.02 0.77 0.73 0.64 0.80 0.92 1.09 1.63 2.52 2.81 2.77 1.70 0.51 0.54 0.63 0.50 0.48 0.49 0.50 0.51 0.49 0.51 0.57 0.57 0.57 0.64 0.71 0.84 0.98 1.09 1.22 1.41 1.54 1.65 1.56 1.42 1.29 1.21 1.20 1.25 1.37 1.49 1.58 1.64
1.21 1.07 0.78 0.76 0.97 1.21 1.18 1.34 1.82 1.95 1.47 0.73 0.40 0.49 0.51 0.43 0.39 0.40 0.42 0.46 0.43 0.50 0.61 0.60 0.56 0.60 0.68 0.79 0.91 1.05 1.15 1.36 1.53 1.61 1.60 1.49 1.33 1.24 1.20 1.21 1.23 1.29 1.27 1.33
1.20 0.94 0.61 0.58 0.58 0.77 1.09 1.10 0.91 1.19 0.87 0.59 0.53 0.44 0.39 0.32 0.30 0.35 0.41 0.49 0.50 0.54 0.63 0.64 0.59 0.62 0.67 0.79 0.88 1.00 1.11 1.26 1.46 1.61 1.66 1.61 1.44 1.33 1.25 1.21 1.20 1.26 1.21 1.13
1.33 1.12 0.67 0.63 0.72 0.85 0.95 1.04 1.22 1.64 1.38 0.81 0.49 0.39 0.45 0.41 0.37 0.37 0.42 0.50 0.50 0.49 0.56 0.59 0.58 0.62 0.69 0.80 0.89 0.97 1.09 1.18 1.32 1.47 1.59 1.63 1.60 1.45 1.36 1.31 1.23 1.18 1.20 1.19
1.26 1.32 0.97 0.91 1.11 1.11 1.04 1.30 1.54 1.56 1.22 1.01 0.67 0.52 0.49 0.41 0.35 0.35 0.38 0.46 0.48 0.50 0.54 0.55 0.55 0.61 0.66 0.79 0.89 0.93 1.02 1.16 1.29 1.34 1.41 1.53 1.65 1.51 1.43 1.41 1.33 1.22 1.16 1.20
1.27 1.50 1.21 0.90 0.77 0.73 0.90 1.12 1.29 1.56 1.21 0.77 0.76 0.62 0.41 0.31 0.29 0.29 0.32 0.41 0.48 0.49 0.53 0.49 0.51 0.58 0.61 0.69 0.83 0.90 0.98 1.03 1.20 1.30 1.33 1.42 1.58 1.59 1.46 1.43 1.41 1.28 1.18 1.17
1.64 1.93 1.76 1.49 1.26 1.05 1.11 1.03 1.05 1.15 1.16 0.88 0.78 0.59 0.36 0.29 0.26 0.27 0.29 0.34 0.42 0.46 0.49 0.48 0.48 0.56 0.61 0.65 0.75 0.86 0.95 0.97 1.06 1.25 1.28 1.36 1.47 1.54 1.48 1.42 1.45 1.42 1.36 1.36
1.90 1.98 1.48 1.39 1.24 1.14 1.11 0.89 0.85 1.17 1.40 0.92 0.61 0.48 0.38 0.35 0.33 0.33 0.31 0.33 0.40 0.46 0.47 0.44 0.47 0.54 0.60 0.64 0.70 0.78 0.85 0.94 1.02 1.20 1.32 1.33 1.38 1.42 1.43 1.45 1.43 1.52 1.57 1.62
1.79 1.73 0.81 0.51 0.47 0.57 0.68 0.63 0.66 0.84 0.86 0.76 0.48 0.43 0.49 0.46 0.43 0.42 0.40 0.37 0.39 0.44 0.44 0.43 0.48 0.54 0.59 0.64 0.68 0.69 0.76 0.83 0.95 1.12 1.23 1.29 1.34 1.45 1.51 1.53 1.56 1.56 1.66 1.71
1.61 1.56 0.80 0.48 0.33 0.40 0.50 0.43 0.46 0.49 0.47 0.50 0.41 0.47 0.49 0.44 0.38 0.38 0.39 0.39 0.41 0.46 0.45 0.46 0.49 0.54 0.58 0.62 0.65 0.63 0.66 0.75 0.87 1.04 1.12 1.19 1.32 1.44 1.57 1.58 1.64 1.66 1.68 1.71
1.40 1.36 1.19 0.80 0.39 0.59 0.75 0.53 0.47 0.46 0.44 0.45 0.52 0.55 0.48 0.44 0.41 0.41 0.42 0.42 0.44 0.43 0.43 0.44 0.50 0.55 0.59 0.61 0.60 0.61 0.64 0.68 0.76 0.92 1.02 1.09 1.24 1.33 1.42 1.45 1.47 1.52 1.47 1.43
1.12 1.23 1.52 1.14 0.85 1.20 0.70 0.42 0.40 0.42 0.45 0.45 0.48 0.50 0.49 0.52 0.49 0.44 0.43 0.46 0.47 0.45 0.42 0.41 0.47 0.51 0.52 0.57 0.60 0.61 0.62 0.66 0.74 0.83 0.93 0.97 1.09 1.21 1.25 1.31 1.33 1.34 1.28 1.26
0.70 1.17 1.74 1.48 1.14 0.71 0.38 0.30 0.42 0.49 0.57 0.48 0.43 0.42 0.41 0.44 0.45 0.48 0.46 0.43 0.46 0.45 0.42 0.41 0.44 0.47 0.47 0.52 0.57 0.60 0.62 0.64 0.70 0.77 0.83 0.86 0.94 1.11 1.12 1.19 1.26 1.22 1.24 1.23
0.70 1.14 1.84 1.60 1.23 0.68 0.38 0.23 0.29 0.44 0.66 0.44 0.38 0.41 0.43 0.44 0.63 0.62 0.54 0.48 0.46 0.43 0.41 0.42 0.44 0.43 0.46 0.49 0.51 0.54 0.57 0.60 0.66 0.73 0.79 0.80 0.84 0.96 0.97 1.01 1.08 1.10 1.09 1.14
1.05 1.52 1.72 1.31 1.05 0.52 0.32 0.24 0.28 0.70 0.83 0.42 0.38 0.42 0.45 0.55 0.66 0.61 0.56 0.53 0.47 0.47 0.46 0.44 0.44 0.46 0.48 0.50 0.52 0.54 0.55 0.57 0.62 0.67 0.72 0.77 0.82 0.89 0.89 0.91 0.95 1.01 1.04 1.07
0.74 1.02 1.04 0.98 1.08 0.62 0.31 0.33 0.58 0.71 0.43 0.36 0.37 0.39 0.43 0.43 0.41 0.44 0.48 0.48 0.45 0.47 0.47 0.46 0.47 0.50 0.50 0.50 0.51 0.51 0.56 0.55 0.58 0.65 0.72 0.77 0.81 0.84 0.84 0.87 0.93 0.95 1.03 1.14
0.53 0.67 0.73 0.73 0.67 0.49 0.38 0.45 0.49 0.39 0.34 0.31 0.34 0.37 0.38 0.38 0.38 0.41 0.42 0.43 0.43 0.45 0.45 0.45 0.48 0.53 0.53 0.53 0.51 0.50 0.54 0.55 0.57 0.64 0.69 0.77 0.81 0.81 0.85 0.88 0.94 1.00 1.07 1.16
0.42 0.39 0.48 0.47 0.37 0.31 0.32 0.33 0.33 0.31 0.31 0.30 0.31 0.35 0.35 0.38 0.37 0.38 0.38 0.40 0.42 0.42 0.42 0.41 0.45 0.51 0.54 0.54 0.54 0.53 0.55 0.56 0.59 0.64 0.66 0.71 0.81 0.86 0.85 0.89 0.93 0.96 1.01 1.15
0.37 0.37 0.45 0.41 0.29 0.25 0.24 0.25 0.28 0.30 0.26 0.25 0.27 0.30 0.32 0.33 0.34 0.35 0.38 0.40 0.42 0.42 0.41 0.40 0.43 0.48 0.54 0.54 0.54 0.55 0.59 0.63 0.65 0.65 0.65 0.69 0.78 0.84 0.85 0.87 0.91 0.95 0.95 1.16
0.29 0.35 0.44 0.40 0.27 0.30 0.27 0.22 0.22 0.26 0.26 0.24 0.27 0.29 0.28 0.28 0.32 0.33 0.35 0.38 0.39 0.40 0.40 0.40 0.40 0.46 0.50 0.51 0.54 0.58 0.65 0.69 0.70 0.70 0.70 0.72 0.78 0.80 0.81 0.84 0.90 1.00 1.02 1.09